This demonstration page uses our WeatherBlox Daily Observations layout. Learn more.

Left ArrowRight Arrow

Hourly Observations for November 1, 2021

Temp ( °F °C ) Dew Point ( °F °C ) Humidity (%) Winds ( mph kmh ) Pressure ( in mb ) Visibility ( mi km ) Precip ( " mm )
12:51 am 00:51 Cloudy with Light Rain 36 2 34 1 93 93 ENE 3 6 30.43 1031 10 16 0.00 0.00
12:56 am 00:56 Cloudy with Light Rain 36 2.2 32 0 86 86 NE 3 6 30.40 1030 10 16 0.00 0.00
1:56 am 01:56 Cloudy with Light Rain 36 2.2 33 0.6 89 89 Calm 30.41 1030 10 16 0.00 0.00
2:56 am 02:56 Cloudy with Light Rain 35 1.7 32 0 89 89 NNE 5 7 30.41 1030 7 11 0.02 0.51
3:18 am 03:18 Cloudy with Light Snow 34 1 32 0 93 93 N 5 7 30.46 1032 3 4 0.02 0.51
3:36 am 03:36 Cloudy with Light Snow 32 0 30 -1 93 93 NNE 5 7 30.47 1032 2 2 0.03 0.76
3:54 am 03:54 Cloudy with Light Snow 32 0 30 -1 93 93 Calm 30.47 1032 1 2 0.05 1.27
3:56 am 03:56 Cloudy with Light Snow 32 0 31 -0.6 96 96 N 3 6 30.42 1030 1 2 0.05 1.27
4:05 am 04:05 Cloudy with Light Snow 32 0 30 -1 93 93 N 5 7 30.47 1032 1 2 0.01 0.25
4:28 am 04:28 Cloudy with Light Snow 32 0 30 -1 93 93 NNE 5 7 30.47 1032 1 2 0.04 1.02
4:36 am 04:36 Cloudy with Light Snow 32 0 30 -1 93 93 NNE 6 9 30.47 1032 1 2 0.04 1.02
4:49 am 04:49 Cloudy with Light Snow 32 0 30 -1 93 93 NE 5 7 30.46 1032 2 3 0.00 0.00
4:56 am 04:56 Cloudy with Light Snow 32 0 31 -0.6 96 96 NE 5 7 30.41 1030 2 3 0.06 1.52
5:15 am 05:15 Cloudy with Light Snow 32 0 30 -1 93 93 NE 5 7 30.47 1032 2 3 0.01 0.25
5:26 am 05:26 Cloudy with Light Snow 32 0 30 -1 93 93 NE 5 7 30.47 1032 2 2 0.01 0.25
5:46 am 05:46 Cloudy with Light Snow 32 0 30 -1 93 93 NNE 5 7 30.47 1032 2 3 0.02 0.51
5:50 am 05:50 Cloudy with Light Snow 32 0 30 -1 93 93 NNE 5 7 30.47 1032 2 2 0.02 0.51
5:56 am 05:56 Cloudy with Light Snow N/A N/A N/A NNE 5 7 N/A 1 2 0.03 0.76
6:02 am 06:02 Cloudy with Light Snow N/A N/A N/A NNE 5 7 N/A 1 1 0.00 0.00
6:20 am 06:20 Cloudy with Light Snow 32 0 30 -1 93 93 Calm 30.48 1032 1 2 0.02 0.51
6:44 am 06:44 Cloudy with Light Snow 32 0 30 -1 93 93 NE 3 6 30.48 1032 2 2 0.05 1.27
6:56 am 06:56 Cloudy with Light Snow 32 0 31 -0.6 96 96 ENE 5 7 30.42 1030 1 2 0.05 1.27
7:15 am 07:15 Cloudy with Light Snow 32 0 30 -1 93 93 NE 5 7 30.47 1032 3 4 0.00 0.00
7:22 am 07:22 Cloudy with Light Snow 32 0 30 -1 93 93 ENE 5 7 30.47 1032 5 8 0.01 0.25
7:36 am 07:36 Cloudy with Light Snow 32 0 30 -1 93 93 ENE 5 7 30.47 1032 2 3 0.02 0.51
7:56 am 07:56 Cloudy with Light Snow 32 0 31 -0.6 96 96 ENE 5 7 30.43 1030 3 4 0.02 0.51
8:09 am 08:09 Cloudy with Light Snow 32 0 32 0 100 100 ENE 6 9 30.48 1032 2 2 0.00 0.00
8:31 am 08:31 Cloudy with Light Snow 32 0 32 0 100 100 ENE 5 7 30.48 1032 1 1 0.00 0.00
8:53 am 08:53 Cloudy with Light Snow 32 0 32 0 100 100 ENE 3 6 30.50 1033 1 2 0.02 0.51
8:54 am 08:54 Cloudy with Light Snow 32 0 32 0 100 100 ENE 3 6 30.50 1033 1 2 0.02 0.51
9:22 am 09:22 Cloudy with Light Snow 32 0 32 0 100 100 SE 3 6 30.51 1033 1 2 0.02 0.51
9:30 am 09:30 Cloudy with Light Snow 32 0 32 0 100 100 ESE 3 6 30.51 1033 1 1 0.02 0.51
9:45 am 09:45 Cloudy with Light Snow 34 1 32 0 93 93 ESE 3 6 30.50 1033 1 2 0.03 0.76
9:56 am 09:56 Cloudy with Light Snow 33 0.6 32 0 96 96 ESE 5 7 30.47 1032 2 2 0.03 0.76
10:11 am 10:11 Cloudy with Light Snow 34 1 32 0 93 93 E 5 7 30.51 1033 1 2 0.01 0.25
10:21 am 10:21 Cloudy with Light Snow 34 1 32 0 93 93 ENE 5 7 30.51 1033 1 2 0.01 0.25
10:31 am 10:31 Cloudy with Light Snow 34 1 34 1 100 100 ENE 5 7 30.50 1033 1 1 0.01 0.25
10:38 am 10:38 Cloudy with Light Snow 34 1 34 1 100 100 NE 5 7 30.50 1033 1 2 0.02 0.51
10:45 am 10:45 Cloudy with Light Snow 34 1 34 1 100 100 ENE 5 7 30.50 1033 3 5 0.00 0.00
10:56 am 10:56 Cloudy with Light Rain 34 1.1 33 0.6 97 97 ENE 5 7 30.47 1032 5 8 0.02 0.51
11:06 am 11:06 Cloudy with Light Rain 34 1 34 1 100 100 E 3 6 30.50 1033 4 6 0.00 0.00
11:37 am 11:37 Cloudy with Light Snow 36 2 34 1 93 93 ESE 7 11 30.50 1033 3 4 0.00 0.00
11:47 am 11:47 Cloudy with Light Snow 36 2 34 1 93 93 ESE 5 7 30.50 1033 4 6 0.00 0.00
11:56 am 11:56 Cloudy with Light Rain 35 1.7 33 0.6 93 93 ESE 6 9 30.48 1032 7 11 0.00 0.00
12:52 pm 12:52 Cloudy 36 2 36 2 100 100 ESE 6 9 30.49 1033 10 16 0.00 0.00
12:56 pm 12:56 Cloudy 36 2.2 35 1.7 97 97 ESE 6 9 30.47 1032 10 16 0.00 0.00
1:56 pm 13:56 Cloudy 35 1.7 33 0.6 93 93 ENE 5 7 30.45 1031 10 16 0.00 0.00
2:56 pm 14:56 Cloudy with Light Rain 35 1.7 33 0.6 93 93 NE 5 7 30.44 1031 7 11 0.00 0.00
3:33 pm 15:33 Cloudy with Light Rain 36 2 34 1 93 93 NNE 5 7 30.46 1032 2 3 0.00 0.00
3:43 pm 15:43 Cloudy with Light Rain 36 2 34 1 93 93 NNE 5 7 30.46 1032 2 3 0.00 0.00
3:56 pm 15:56 Cloudy with Light Wintry Mix 34 1.1 33 0.6 97 97 NNE 5 7 30.44 1031 2 3 0.00 0.00
4:10 pm 16:10 Cloudy with Light Rain 36 2 34 1 93 93 N 3 6 30.46 1032 3 5 0.00 0.00
4:56 pm 16:56 Cloudy with Light Wintry Mix 34 1.1 33 0.6 97 97 NNE 3 6 30.44 1031 3 5 0.00 0.00
5:36 pm 17:36 Cloudy 34 1 34 1 100 100 N 5 7 30.47 1032 10 16 0.00 0.00
5:56 pm 17:56 Cloudy 34 1.1 33 0.6 97 97 NNW 3 6 30.47 1032 10 16 0.00 0.00
6:13 pm 18:13 Cloudy 34 1 34 1 100 100 NNW 3 6 30.47 1032 10 16 0.00 0.00
6:56 pm 18:56 Cloudy 34 1.1 33 0.6 97 97 NW 3 6 30.46 1031 10 16 0.00 0.00
7:56 pm 19:56 Cloudy 34 1.1 33 0.6 97 97 Calm 30.48 1032 10 16 0.00 0.00
8:56 pm 20:56 Cloudy 34 1 N/A N/A WNW 3 6 30.49 1032 10 16 0.00 0.00
9:56 pm 21:56 Cloudy 34 1.1 33 0.6 97 97 NW 3 6 30.48 1032 10 16 0.00 0.00
10:56 pm 22:56 Cloudy 34 1.1 33 0.6 97 97 WNW 3 6 30.49 1033 10 16 0.00 0.00
11:56 pm 23:56 Cloudy 34 1.1 33 0.6 97 97 W 3 6 30.49 1033 10 16 0.00 0.00

Powered by AerisWeather